TimeCDT,TemperatureF,Dew PointF,Humidity,Sea Level PressureIn,VisibilityMPH,Wind Direction,Wind SpeedMPH,Gust SpeedMPH,PrecipitationIn,Events,Conditions,WindDirDegrees,DateUTC
12:15 AM,75.7,70.9,85,29.87,10.0,Calm,Calm,-,N/A,,Clear,0,2013-08-31 05:15:00
12:35 AM,76.1,68.9,78,29.87,10.0,Calm,Calm,-,N/A,,Clear,0,2013-08-31 05:35:00
12:55 AM,75.2,69.6,83,29.87,5.0,Calm,Calm,-,N/A,,Haze,0,2013-08-31 05:55:00
1:15 AM,77.2,68.0,73,29.87,10.0,Calm,Calm,-,N/A,,Clear,0,2013-08-31 06:15:00
1:35 AM,77.2,67.6,72,29.87,10.0,Calm,Calm,-,N/A,,Clear,0,2013-08-31 06:35:00
1:55 AM,73.9,68.2,82,29.87,10.0,Calm,Calm,-,N/A,,Clear,0,2013-08-31 06:55:00
2:15 AM,74.1,70.9,90,29.87,10.0,Calm,Calm,-,N/A,,Clear,0,2013-08-31 07:15:00
2:35 AM,73.8,69.4,86,29.87,10.0,Calm,Calm,-,N/A,,Clear,0,2013-08-31 07:35:00
2:55 AM,72.9,69.8,90,29.87,10.0,Calm,Calm,-,N/A,,Clear,0,2013-08-31 07:55:00
3:15 AM,73.8,70.7,90,29.88,10.0,Calm,Calm,-,N/A,,Clear,0,2013-08-31 08:15:00
3:35 AM,72.9,69.8,90,29.88,10.0,Calm,Calm,-,N/A,,Clear,0,2013-08-31 08:35:00
3:55 AM,73.2,69.1,87,29.88,10.0,Calm,Calm,-,N/A,,Clear,0,2013-08-31 08:55:00
4:15 AM,74.3,68.0,81,29.88,10.0,Calm,Calm,-,N/A,,Clear,0,2013-08-31 09:15:00
4:35 AM,72.5,68.9,88,29.88,10.0,Calm,Calm,-,N/A,,Clear,0,2013-08-31 09:35:00
4:55 AM,70.9,69.1,94,29.88,10.0,Calm,Calm,-,N/A,,Clear,0,2013-08-31 09:55:00
5:15 AM,71.4,70.0,95,29.88,10.0,Calm,Calm,-,N/A,,Clear,0,2013-08-31 10:15:00
5:35 AM,72.0,70.7,96,29.87,10.0,Calm,Calm,-,N/A,,Clear,0,2013-08-31 10:35:00
5:55 AM,71.4,69.6,94,29.88,10.0,Calm,Calm,-,N/A,,Clear,0,2013-08-31 10:55:00
6:15 AM,70.9,68.7,93,29.89,10.0,Calm,Calm,-,N/A,,Clear,0,2013-08-31 11:15:00
6:35 AM,70.2,69.4,98,29.89,7.0,Calm,Calm,-,N/A,,Clear,0,2013-08-31 11:35:00
6:55 AM,69.8,69.8,100,29.89,10.0,Calm,Calm,-,N/A,,Clear,0,2013-08-31 11:55:00
7:55 AM,73.4,69.8,88,29.90,10.0,Calm,Calm,-,N/A,,Clear,0,2013-08-31 12:55:00
8:55 AM,80.6,69.8,70,29.92,10.0,Calm,Calm,-,N/A,,Clear,0,2013-08-31 13:55:00
10:55 AM,91.4,68.0,46,29.89,10.0,Calm,Calm,-,N/A,,Clear,0,2013-08-31 15:55:00
11:55 AM,96.8,66.2,37,29.88,10.0,SE,4.6,-,N/A,,Clear,140,2013-08-31 16:55:00
12:55 PM,100.4,66.2,33,29.86,10.0,SE,3.5,-,N/A,,Clear,130,2013-08-31 17:55:00
1:55 PM,102.2,64.4,29,29.84,10.0,SSE,8.1,-,N/A,,Clear,160,2013-08-31 18:55:00
2:55 PM,102.2,62.6,27,29.83,10.0,Calm,Calm,-,N/A,,Clear,0,2013-08-31 19:55:00
11:35 PM,83.5,66.7,57,29.82,10.0,ESE,5.8,-,N/A,,Clear,120,2013-09-01 04:35:00
11:55 PM,82.6,67.1,59,29.81,10.0,ESE,3.5,-,N/A,,Clear,110,2013-09-01 04:55:00